EST,Max TemperatureF,Mean TemperatureF,Min TemperatureF,Max Dew PointF,MeanDew PointF,Min DewpointF,Max Humidity, Mean Humidity, Min Humidity, Max Sea Level PressureIn, Mean Sea Level PressureIn, Min Sea Level PressureIn, Max VisibilityMiles, Mean VisibilityMiles, Min VisibilityMiles, Max Wind SpeedMPH, Mean Wind SpeedMPH, Max Gust SpeedMPH,PrecipitationIn, CloudCover, Events, WindDirDegrees
2012-2-1,54,42,30,39,31,28,100,81,54,30.03,29.89,29.78,10,4,0,12,2,21,0.00,5,Fog-Rain,241
2012-2-2,41,36,28,29,24,18,75,65,56,30.23,30.09,29.99,10,10,10,14,6,18,0.00,8,,6
2012-2-3,36,28,21,17,11,6,63,50,31,30.41,30.34,30.27,10,10,10,15,9,22,0.00,3,,319
2012-2-4,36,30,24,23,15,7,78,54,33,30.26,30.21,30.16,10,10,10,18,6,24,0.00,3,,319
2012-2-5,36,26,16,11,7,4,71,46,27,30.22,30.15,30.10,10,10,10,10,5,,0.00,0,,315
2012-2-6,51,38,24,21,17,11,65,45,24,30.08,29.93,29.83,10,10,10,14,6,23,0.00,0,,221
2012-2-7,41,34,24,25,20,10,75,57,41,30.30,30.06,29.89,10,10,10,17,4,23,0.00,4,,327
2012-2-8,37,28,18,8,6,3,57,41,24,30.35,30.24,30.09,10,10,10,10,6,,0.00,2,,221
2012-2-9,46,35,24,15,11,7,66,41,21,30.12,30.05,29.98,10,10,10,12,3,17,0.00,1,,302
2012-2-10,48,34,21,22,17,12,78,50,24,30.13,30.02,29.85,10,10,9,13,3,17,0.00,1,,207
2012-2-11,37,32,24,23,19,9,61,55,45,29.89,29.72,29.56,10,10,9,21,4,32,0.00,5,,350
2012-2-12,21,16,12,3,-3,-6,51,42,35,29.92,29.76,29.61,10,10,10,22,14,32,0.00,1,,319
2012-2-13,37,24,12,16,10,-4,65,50,36,30.00,29.89,29.81,10,10,9,14,7,26,0.00,2,Snow,237
2012-2-14,42,30,19,17,14,9,85,53,27,30.14,30.09,30.00,10,10,9,7,1,,0.00,5,,174
2012-2-15,43,38,30,31,26,16,85,70,52,30.27,30.19,30.08,10,9,5,5,1,,0.00,7,Rain-Snow,315
2012-2-16,44,34,25,36,30,22,93,80,51,30.32,30.19,30.04,10,7,4,12,3,,0.07,4,Rain,179
2012-2-17,48,42,35,38,29,19,100,67,34,30.03,29.93,29.87,10,7,1,12,6,20,0.00,5,Snow,222
2012-2-18,45,38,30,31,21,15,89,55,30,30.00,29.93,29.81,10,10,8,14,6,23,0.00,2,Rain-Snow,271
2012-2-19,42,35,28,25,16,13,75,50,33,30.10,30.05,30.02,10,10,10,12,7,20,0.00,0,,328
2012-2-20,39,32,25,15,11,3,58,44,24,30.34,30.17,30.04,10,10,10,26,9,37,0.00,0,,327
2012-2-21,42,30,19,31,19,13,92,60,31,30.37,30.17,29.88,10,9,2,14,4,21,0.00,2,Snow,193
2012-2-22,53,42,30,36,27,18,96,66,26,29.85,29.66,29.54,10,7,1,12,4,24,0.00,2,,214
2012-2-23,48,42,37,40,30,19,89,64,37,29.81,29.52,29.36,10,10,7,18,5,33,0.02,4,Rain,275
2012-2-24,37,34,30,36,30,20,100,81,50,29.82,29.59,29.25,10,6,2,17,3,23,0.88,7,Rain-Snow,55
2012-2-25,41,36,28,32,22,12,93,59,40,29.83,29.39,29.18,10,10,10,21,10,39,0.01,6,,267
2012-2-26,37,29,21,12,3,-6,60,35,16,30.48,30.26,29.88,10,10,10,18,12,29,0.00,0,,302
2012-2-27,48,34,19,27,18,10,71,54,38,30.49,30.28,30.06,10,10,10,12,3,17,0.00,4,,178
2012-2-28,42,36,30,26,16,10,62,43,28,30.43,30.28,30.06,10,10,10,18,10,31,0.00,2,,313
2012-2-29,34,31,28,28,21,12,93,73,46,30.42,30.24,30.01,10,5,0,8,3,,0.13,8,Fog-Snow,65